Weather in Gabin

Poland     52°24′04″N   19°44′23″E
temp.,
°C
wind,
m/s
gust,
m/s
humid.,
%
clouds,
%
prec.,
mm/h
press.,
hPa
HPBL,
m
24 september, fri
fri2423:00+15wsw102182100 1.7 10001435
02:00+12wnw9177583 2.7 10011329
05:00+11wnw91780100 0.0 10021352
08:00+12wnw81576100 0.1 10041326
11:00+15wnw9146799 0.0 10061330
14:00+13wnw91563100 0.1 10071425
17:00+15wnw8145918 0.0 10081628
20:00+13wnw512678 0.0 1011661
25 september, sat
sat2523:00+12w4136899 0.0 1012631
02:00+14w61372100 0.0 1011605
05:00+13wsw6148734 0.0 1011517
08:00+15w61486100 0.0 1012717
11:00+16w71382100 0.0 1013855
14:00+17w71176100 0.1 10141201
17:00+17w6107592 0.1 10151146
20:00+14w498291 0.1 1017203
26 september, sun
sun2623:00+12wnw359274 0.0 1019104
02:00+11nnw229084 0.0 102018
05:00+10nnw1191100 0.0 102110
08:00+12ene1284100 0.0 102275
11:00+16e226469 0.0 1022481
14:00+19ese225358 0.0 1022893
17:00+18e345824 0.0 1021367
20:00+13e48735 0.0 1022145
27 september, mon
mon2723:00+12ese4107890 0.0 1022205
02:00+11ese498363 0.0 1022198
05:00+10e4108665 0.0 1022221
08:00+11ese4108375 0.0 1022297
11:00+16ese576198 0.0 1022618
14:00+19ese674896 0.0 1022970
17:00+17ese475479 0.0 1022493
20:00+13e4968100 0.0 1023192
28 september, tue
tue2823:00+11ese41174100 0.0 1023265
02:00+10ese4977100 0.0 1024203
05:00+9ese388375 0.0 1025157
08:00+9ese387946 0.0 1025244
11:00+15se575742 0.0 1026574
14:00+17se564768 0.0 10261007
17:00+16se475415 0.0 1025566
20:00+12ese397232 0.0 1026184